User: anonymous
Location: Caltech
(34.1382°N, 118.1253°W)
Time: 07:26:09
(UTC-07:00)
Language:

SO-67 - Orbit

View from above orbital plane
View from above orbital plane
View from above satellite
View from above satellite

Ground track
Ground track

The orbit data is extracted from the following two-line orbital elements,

1 35870U 09049F   14113.15715778  .00012543  00000-0  40582-3 0   781
2 35870 097.1653 136.1474 0000719 062.9881 022.7390 15.32182944255625
Epoch (UTC): 23 April 2014 03:46:18
Eccentricity: 0.0000719
inclination: 97.1653°
perigee height: 469 km
apogee height: 470 km
right ascension of ascending node: 136.1474°
argument of perigee: 62.9881°
revolutions per day: 15.32182944
mean anomaly at epoch: 22.7390°
orbit number at epoch: 25562

The dashed part of the orbit path shows where the satellite is in the earth's shadow,  

DLR